Weather History for KRIC - December, 2012

Change the Weather History Date:

Thursday, December 27, 2012

  Actual Average Record
Temperature  
Mean Temperature 43 °F 39 °F  
Max Temperature 50 °F 48 °F 73 °F (1971)
Min Temperature 35 °F 29 °F 4 °F (1966)
Degree Days  
Heating Degree Days 22 26  
Month to date heating degree days 449 637  
Since 1 July heating degree days 1204 1313  
Cooling Degree Days 0 0  
Month to date cooling degree days 0 0  
Year to date cooling degree days 1744 1548  
Moisture  
Dew Point 30 °F    
Average Humidity 67    
Maximum Humidity 92    
Minimum Humidity 42    
Precipitation  
Precipitation T in 0.10 in 1.39 in (1964)
Month to date precipitation 2.65 2.89  
Year to date precipitation 36.34 43.23  
Snow  
Snow 0.00 in 0.10 in 1.20 in (1899)
Month to date snowfall 0.0 1.8  
Since 1 July snowfall 0.0 2.0  
Snow Depth 0.00 in    
Sea Level Pressure  
Sea Level Pressure 29.79 in    
Wind  
Wind Speed 12 mph (WNW)    
Max Wind Speed 23 mph    
Max Gust Speed 30 mph    
Visibility 10 miles    
Events Rain    
T = Trace of Precipitation, MM = Missing Value Source: NWS Daily Summary

Daily Weather History Graph

Daily Weather History Graph

Search for Another Location

Airport or City:

Trip Planner

Search our weather history database for the weather conditions in past years. The results will help you decide how hot, cold, wet, or windy it might be!

Date:

Astronomy

Dec. 27, 2012 Rise Set
Actual Time 7:22 AM EST 4:58 PM EST
Civil Twilight 6:53 AM EST 5:27 PM EST
Nautical Twilight 6:20 AM EST 6:00 PM EST
Astronomical Twilight 5:49 AM EST 6:32 PM EST
Moon 4:39 PM EST (12/27) 6:32 AM EST (12/27)
Length of Visible Light 10h 34m
Length of Day
9h 35m
Full, 100% of the Moon is Illuminated
Dec 27
Full
Dec 28
Full
Jan 4
Last Quarter
Jan 11
New
Jan 18
First Quarter

Hourly Weather History & Observations

Time (EST) Temp. Windchill Dew Point Humidity Pressure Visibility Wind Dir Wind Speed Gust Speed Precip Events Conditions
12:54 AM 39.9 °F 32.1 °F 37.0 °F 89% 29.50 in 10.0 mi WSW 13.8 mph - 0.00 in Rain Light Rain
1:33 AM 39.2 °F 33.0 °F 37.4 °F 93% 29.50 in 10.0 mi West 9.2 mph - 0.00 in   Overcast
1:54 AM 39.9 °F 33.4 °F 36.0 °F 86% 29.52 in 10.0 mi West 10.4 mph - 0.00 in   Overcast
2:54 AM 39.9 °F 33.9 °F 36.0 °F 86% 29.55 in 10.0 mi West 9.2 mph - N/A   Overcast
3:54 AM 39.9 °F 33.4 °F 36.0 °F 86% 29.57 in 10.0 mi WSW 10.4 mph - N/A   Scattered Clouds
4:54 AM 39.9 °F 33.4 °F 35.1 °F 83% 29.58 in 10.0 mi West 10.4 mph - N/A   Partly Cloudy
5:54 AM 39.9 °F 34.5 °F 35.1 °F 83% 29.62 in 10.0 mi West 8.1 mph - N/A   Partly Cloudy
6:54 AM 39.0 °F 32.3 °F 34.0 °F 82% 29.68 in 10.0 mi West 10.4 mph - N/A   Partly Cloudy
7:54 AM 39.9 °F 33.4 °F 33.1 °F 77% 29.71 in 10.0 mi West 10.4 mph - N/A   Partly Cloudy
8:54 AM 42.1 °F 35.7 °F 32.0 °F 67% 29.76 in 10.0 mi West 11.5 mph - N/A   Scattered Clouds
9:54 AM 44.1 °F 35.4 °F 28.9 °F 55% 29.80 in 10.0 mi WNW 21.9 mph 27.6 mph N/A   Partly Cloudy
10:54 AM 46.0 °F 39.0 °F 27.0 °F 47% 29.83 in 10.0 mi West 17.3 mph 24.2 mph N/A   Partly Cloudy
11:54 AM 46.9 °F - 27.0 °F 46% 29.83 in 10.0 mi NW 17.3 mph 26.5 mph N/A   Scattered Clouds
12:54 PM 48.9 °F - 27.0 °F 43% 29.83 in 10.0 mi NW 17.3 mph 24.2 mph N/A   Scattered Clouds
1:54 PM 48.9 °F - 26.1 °F 41% 29.84 in 10.0 mi WNW 15.0 mph 24.2 mph N/A   Scattered Clouds
2:54 PM 48.2 °F - 26.6 °F 43% 29.85 in 10.0 mi West 12.7 mph 23.0 mph N/A   Scattered Clouds
3:54 PM 48.9 °F - 26.1 °F 41% 29.89 in 10.0 mi WNW 12.7 mph 19.6 mph N/A   Scattered Clouds
4:54 PM 46.0 °F 41.0 °F 26.1 °F 46% 29.92 in 10.0 mi WNW 10.4 mph - N/A   Scattered Clouds
5:54 PM 44.1 °F 37.4 °F 25.0 °F 47% 29.96 in 10.0 mi NW 13.8 mph - N/A   Partly Cloudy
6:54 PM 42.1 °F 39.2 °F 25.0 °F 51% 29.98 in 10.0 mi WNW 4.6 mph - N/A   Partly Cloudy
7:54 PM 41.0 °F 33.9 °F 24.1 °F 51% 30.01 in 10.0 mi WNW 12.7 mph - N/A   Clear
8:54 PM 39.0 °F 33.4 °F 24.1 °F 55% 30.02 in 10.0 mi WNW 8.1 mph - N/A   Clear
9:54 PM 37.9 °F 30.9 °F 23.0 °F 55% 30.04 in 10.0 mi WNW 10.4 mph - N/A   Clear
10:54 PM 37.0 °F 31.0 °F 23.0 °F 57% 30.07 in 10.0 mi WNW 8.1 mph - N/A   Clear
11:54 PM 35.1 °F 29.3 °F 23.0 °F 61% 30.07 in 10.0 mi WNW 6.9 mph - N/A   Clear